Temperature
24 24 23 23 24 26 28 28 29 29 30 30 30 30 29 27 25 23 22 22 21 20 21 20 20 20 20 20 20 20 19 19 19 19 19 19 19 19 19 19 19 19 19 19 19 19 19 19 19
25 24 24 24 25 27 27 28 29 30 30 30 30 30 29 27 25 23 22 22 20 20 21 20 20 20 20 20 20 20 19 19 19 19 19 19 19 19 19 19 19 19 19 19 19 19 19 19 19
25 24 25 25 27 28 28 29 30 30 30 30 30 29 27 26 25 23 22 21 20 20 20 20 20 20 20 20 20 19 19 19 19 19 19 19 19 19 19 19 19 19 19 19 18 18 19 19 19
25 26 27 28 28 29 30 30 31 31 30 30 30 28 26 26 25 23 22 22 20 20 20 20 20 20 20 20 20 19 19 19 19 19 19 19 19 19 19 19 19 19 19 18 18 18 18 18 19
27 27 27 28 29 30 31 31 31 31 31 30 29 27 25 24 24 23 22 22 21 20 20 20 20 20 20 20 19 19 19 19 19 19 19 19 19 19 19 19 19 19 19 18 18 18 18 18 18
28 28 26 27 29 31 31 32 32 31 31 30 30 27 25 24 23 23 23 22 21 20 20 20 20 20 20 19 19 19 19 19 19 18 18 18 18 19 19 19 19 19 19 19 18 18 18 18 18
27 27 26 28 29 30 31 32 31 31 30 30 30 28 26 24 23 23 23 23 22 21 20 20 20 20 20 19 19 19 19 19 18 18 18 18 18 18 19 19 19 19 19 19 18 18 18 18 18
27 28 28 28 28 29 31 31 31 31 30 30 30 29 27 25 24 24 23 23 22 21 20 20 19 20 20 20 19 19 19 19 18 18 18 18 18 19 18 19 19 19 19 19 18 18 18 18 18
27 28 26 28 28 29 31 31 31 31 30 30 29 28 26 25 24 24 24 24 23 22 21 20 19 19 19 19 19 19 19 19 18 18 18 18 18 18 18 18 19 19 19 19 18 18 18 18 18
29 26 25 28 30 29 30 30 31 31 30 30 29 27 26 25 25 24 24 24 23 23 22 21 20 19 19 19 19 19 19 19 19 18 18 18 18 17 17 18 18 19 19 19 19 18 18 18 18
30 28 28 29 30 30 30 30 30 30 28 29 29 28 26 26 25 25 25 25 24 23 23 22 21 20 19 19 19 19 18 18 18 18 18 18 18 18 18 18 18 19 19 18 18 18 18 18 18
29 29 29 30 29 29 30 30 29 28 28 29 29 28 27 26 26 26 26 25 24 24 23 22 22 21 20 20 19 19 19 19 18 18 18 18 18 18 18 18 18 18 18 18 18 18 19 19 19
29 29 29 29 29 29 29 29 28 27 28 28 29 28 27 27 26 26 26 26 25 24 23 23 22 22 21 20 20 19 19 19 19 18 18 18 18 19 19 18 18 18 18 18 18 18 19 19 19
29 29 29 29 29 29 29 29 28 27 27 28 28 28 27 27 27 26 26 26 25 24 23 23 22 22 22 21 20 20 20 19 19 19 19 19 19 19 19 19 19 18 18 18 18 19 19 19 18
29 29 29 29 29 29 29 27 27 26 27 27 27 27 26 26 26 26 25 25 25 25 24 23 23 22 22 22 21 20 20 20 19 19 19 19 19 19 19 19 19 19 18 19 19 19 19 18 18
29 29 28 28 28 28 28 25 25 25 26 26 26 26 25 25 25 24 24 24 24 24 24 24 23 22 22 22 21 21 20 20 20 19 19 19 19 19 19 19 19 18 18 19 19 19 18 18 18
28 27 26 25 26 27 27 24 25 25 25 26 25 25 25 24 23 23 23 23 23 24 24 24 23 23 22 22 21 21 20 20 20 19 19 19 19 19 19 19 19 18 18 18 18 18 18 18 18
26 26 26 26 26 26 26 25 25 25 25 25 25 25 24 23 22 22 21 21 22 22 23 23 23 23 22 22 21 21 20 20 20 19 19 19 19 19 19 18 18 18 18 18 18 18 18 18 18
27 27 26 26 27 26 26 26 26 25 24 24 24 24 23 22 22 21 20 20 21 21 21 22 22 22 22 22 21 21 20 20 20 19 19 19 19 19 18 18 18 18 18 18 17 18 17 17 17
27 27 26 26 26 26 25 25 25 24 24 23 23 22 21 21 21 20 20 19 19 19 20 20 21 22 22 22 21 20 20 20 19 19 19 19 18 18 18 18 18 18 17 17 17 17 17 17 17
25 25 25 24 25 25 25 24 24 23 22 21 21 21 20 20 19 19 18 18 18 18 18 19 20 21 21 21 21 20 20 19 19 19 19 18 18 18 18 17 17 17 17 17 17 17 17 17 17
23 24 24 24 23 23 24 22 21 20 19 19 19 19 18 18 18 18 17 17 17 17 17 18 19 20 20 20 20 20 20 19 19 19 19 18 18 17 17 17 17 17 17 17 17 17 17 17 16
23 24 24 24 23 23 24 23 19 19 17 17 17 17 17 17 17 17 16 16 16 16 16 17 18 18 19 20 20 19 19 19 18 18 18 17 17 17 17 17 17 17 17 16 16 16 16 16 16
24 24 24 24 24 22 22 21 16 15 15 15 16 16 16 16 15 15 15 15 15 15 16 16 17 17 18 18 19 19 18 18 18 17 17 17 17 16 16 16 16 16 16 16 16 16 16 16 16
23 22 21 21 21 21 22 18 14 15 15 15 14 14 14 14 14 14 14 14 14 15 15 15 16 16 16 17 17 17 17 17 17 17 16 16 16 16 16 16 16 16 16 16 16 16 16 16 16
21 21 19 18 19 19 19 16 14 14 14 14 14 14 14 13 13 13 13 13 14 14 14 15 15 15 15 16 16 16 16 16 16 16 16 16 16 15 15 16 16 16 16 16 16 16 16 16 16
20 20 20 19 20 19 17 15 15 14 14 13 13 13 13 12 12 13 13 13 13 13 14 14 14 14 15 15 15 15 15 15 15 15 15 15 15 15 15 15 15 16 16 16 16 16 16 16 16
20 19 19 18 17 17 16 14 12 12 12 13 12 12 12 12 12 12 13 13 13 13 13 14 14 14 14 14 14 14 15 15 14 14 15 15 15 15 15 16 16 16 16 16 16 16 16 16 16
19 18 18 18 17 16 14 13 12 12 12 12 12 11 11 12 12 12 12 13 13 13 13 13 14 14 14 14 14 14 14 14 14 15 15 15 15 15 15 16 16 16 16 16 16 16 16 15 15
18 18 18 16 16 15 14 12 13 12 12 12 12 12 12 12 12 12 12 12 13 13 13 13 13 13 13 14 14 14 14 14 14 14 15 15 15 15 15 16 16 16 16 16 15 15 15 15 15
Wind_Speed
14 12 9 3 4 2 10 9 10 10 11 10 9 7 11 14 9 7 7 14 19 18 18 17 16 15 13 12 12 12 12 12 12 11 11 11 11 11 10 10 10 9 9 9 8 8 7 7 6
12 7 4 3 2 7 10 9 10 11 8 7 9 12 13 14 13 9 8 15 19 18 17 16 16 15 13 12 11 11 11 11 11 11 11 11 11 11 10 10 10 10 9 9 9 8 8 7 6
11 9 4 3 4 9 10 8 8 10 9 9 9 14 11 8 11 9 12 17 18 17 17 18 16 14 13 12 11 11 11 11 11 11 10 10 10 10 10 10 10 10 9 9 9 8 7 6 6
7 5 5 0 9 8 7 8 6 8 9 10 10 10 12 10 9 14 15 17 18 16 18 18 16 14 13 11 11 11 11 11 10 10 10 10 10 10 10 10 10 10 9 9 8 8 7 6 6
5 4 3 3 8 8 8 8 7 9 10 10 13 16 13 13 15 15 13 15 17 16 17 17 16 14 12 11 11 10 10 10 10 10 9 9 9 9 9 9 9 9 9 8 8 7 7 6 6
4 3 2 3 7 7 7 6 7 9 11 11 12 15 10 12 13 12 12 13 15 16 16 17 15 14 12 11 11 10 10 10 9 9 9 9 9 9 8 8 8 8 7 7 6 6 6 6 5
5 4 1 4 6 7 7 8 9 10 14 11 10 13 11 13 11 12 12 12 15 16 16 15 15 13 12 11 10 10 10 10 9 9 9 8 8 8 8 8 8 7 6 5 5 5 5 5 5
4 5 3 4 6 6 6 6 8 9 10 9 12 11 10 13 12 12 11 11 14 15 15 15 16 15 14 12 11 10 10 10 9 9 9 9 9 9 9 9 8 6 5 4 3 3 3 4 4
4 4 6 5 6 3 3 5 6 2 7 9 14 14 14 15 12 10 8 8 10 12 13 13 14 13 14 15 14 12 11 10 10 10 10 10 11 12 11 10 10 7 5 4 3 3 4 5 5
4 2 3 5 5 3 4 5 3 2 7 8 11 13 14 12 11 10 9 9 10 11 12 12 12 11 11 11 14 12 12 12 11 11 12 12 13 11 11 14 11 8 7 6 6 7 7 8 8
4 1 1 2 7 5 3 3 4 7 7 7 5 11 12 11 9 9 10 9 10 10 10 12 12 11 8 6 10 8 9 10 12 12 14 12 10 10 12 11 9 9 9 9 9 9 10 11 9
4 2 2 4 4 4 4 2 5 9 7 8 5 7 11 11 10 8 7 8 10 10 9 9 12 12 10 8 7 7 6 7 7 10 13 10 4 4 8 8 11 11 10 9 9 8 9 6 6
4 2 1 1 2 4 4 2 4 7 7 8 5 3 8 9 9 8 6 7 8 9 10 8 9 12 12 10 7 7 6 7 9 10 12 11 4 4 3 4 7 8 8 6 3 4 2 1 3
3 4 5 4 5 4 2 2 1 6 5 6 6 5 4 4 3 6 5 4 6 8 10 9 9 8 9 9 9 7 6 6 7 8 10 12 8 4 3 3 3 3 4 7 5 3 3 1 3
6 9 9 8 7 3 1 0 4 5 4 6 9 9 8 6 4 4 3 1 2 6 8 9 9 9 9 9 9 6 5 7 5 6 9 11 10 6 4 3 4 3 4 5 2 2 2 3 4
11 11 9 3 1 1 5 1 6 5 6 7 8 8 7 8 8 10 11 8 6 2 3 7 8 8 9 7 8 6 5 5 5 7 7 8 10 8 5 3 3 4 4 1 2 2 1 2 2
6 5 4 1 1 3 4 3 4 4 4 4 5 6 6 8 10 12 13 12 11 8 5 3 7 7 6 7 7 6 5 5 4 6 5 5 6 7 5 4 2 3 2 2 2 2 1 1 1
9 8 7 4 2 3 4 1 6 6 5 5 5 6 8 10 11 11 12 12 11 11 10 6 3 7 7 5 6 6 4 5 5 4 4 5 3 5 5 3 2 1 3 2 1 0 1 1 0
12 12 12 7 1 3 6 4 3 7 6 5 7 9 11 12 12 11 11 11 11 11 11 9 6 4 5 5 5 6 6 4 5 4 5 5 3 3 4 3 3 2 2 2 1 1 0 0 0
13 13 11 6 7 7 7 6 1 5 7 8 9 11 12 12 12 12 11 11 12 12 12 12 10 7 4 4 7 6 6 5 4 4 5 5 5 3 2 3 2 2 2 1 2 2 1 1 1
13 12 12 11 11 11 12 9 3 4 10 11 11 11 12 12 13 13 12 12 11 12 12 11 11 9 6 4 4 6 5 4 3 4 4 4 4 3 2 2 2 3 3 3 5 5 5 4 4
11 12 14 14 13 10 10 8 4 9 12 13 14 14 13 13 13 13 12 12 12 12 12 11 11 10 7 3 5 6 6 6 5 4 4 4 3 3 2 1 1 2 3 5 6 7 6 6 6
11 15 17 17 14 14 12 8 4 10 13 15 16 16 15 15 15 14 13 13 13 13 12 11 10 10 8 4 1 4 5 5 5 5 6 5 4 2 2 2 1 2 3 5 6 6 6 6 7
13 16 16 14 11 10 7 3 6 10 15 16 17 17 18 17 16 16 14 12 12 12 12 11 10 10 9 5 3 5 7 8 8 7 6 4 3 2 1 2 2 3 4 5 6 6 6 6 6
15 13 7 5 3 3 5 6 7 12 15 15 17 18 18 16 16 15 15 13 12 12 12 11 11 10 9 7 6 6 8 8 8 7 6 6 4 2 2 2 3 4 4 5 5 5 5 6 6
13 12 7 6 6 7 7 6 6 13 14 15 15 15 16 16 15 15 14 12 12 12 12 12 10 10 10 9 8 7 7 5 5 4 4 4 3 3 4 4 5 5 5 5 4 2 3 3 4
10 10 9 7 8 4 4 5 6 17 18 19 18 18 18 17 16 15 13 12 12 12 11 11 10 10 9 8 7 7 7 6 5 3 2 2 2 3 5 5 5 5 4 3 2 2 3 2 2
10 9 6 6 6 4 4 6 9 17 18 18 18 18 18 17 16 14 13 12 11 10 10 10 9 8 7 7 6 6 5 5 4 3 2 1 1 2 2 4 4 4 4 3 2 1 1 1 2
12 11 7 5 4 4 4 4 7 11 12 14 15 16 16 15 14 12 12 12 11 11 11 10 9 9 8 7 6 5 5 4 4 3 1 1 1 2 4 4 3 3 4 4 3 3 3 2 2
10 10 9 5 5 5 3 3 6 8 9 10 12 13 13 13 12 11 12 12 12 12 11 11 11 10 10 9 7 7 6 5 4 3 2 2 2 3 3 2 1 1 2 2 3 2 3 3 2
Wind_Direction
283 252 235 257 265 102 70 70 62 45 42 46 33 34 62 61 54 85 146 143 125 127 133 141 139 137 134 131 128 126 122 119 116 112 108 104 101 96 92 90 88 88 90 90 89 89 90 94 97
287 278 247 248 269 82 76 69 68 59 43 45 50 38 58 67 80 104 146 121 126 128 139 142 142 141 139 137 135 132 129 126 123 119 115 110 105 101 97 92 88 87 87 87 87 88 88 90 94
264 262 257 238 67 77 82 75 75 67 47 38 61 63 51 60 96 123 125 127 129 133 139 135 145 144 144 144 142 139 136 134 130 126 122 117 112 107 102 96 91 88 86 85 85 86 86 89 94
272 258 246 233 79 77 96 104 83 74 62 50 57 72 69 57 91 121 130 139 129 132 131 139 147 148 149 150 149 146 144 142 139 134 128 124 119 113 108 103 97 91 87 84 83 83 85 89 94
247 264 287 89 90 89 77 79 86 84 68 57 72 82 79 75 94 118 143 136 134 135 133 145 149 152 155 156 155 154 152 150 148 142 136 132 127 121 116 110 103 96 89 84 81 80 81 87 93
278 281 353 76 84 75 80 75 60 65 68 59 74 92 95 107 115 135 143 142 141 138 139 145 153 157 160 162 161 160 159 158 155 149 145 141 135 129 124 118 111 104 97 89 83 79 81 87 95
311 302 205 116 94 71 56 47 53 59 58 41 57 93 112 118 129 144 148 154 143 142 142 147 158 162 166 169 169 168 168 166 162 159 155 151 144 141 137 131 125 117 109 101 92 86 87 94 101
303 293 323 87 91 73 53 57 53 58 72 51 47 75 114 126 146 148 155 156 147 148 150 158 162 168 172 175 178 176 175 173 170 166 163 160 160 160 158 154 140 134 129 122 115 110 117 123 137
276 295 4 19 78 67 47 58 71 48 84 78 70 74 101 128 142 145 150 154 152 153 155 161 163 171 173 174 174 176 180 179 174 174 174 175 183 181 179 163 147 153 155 158 170 185 186 179 190
250 355 31 323 54 60 31 38 23 37 70 77 93 101 115 137 147 154 161 169 161 162 164 162 164 166 172 175 159 177 182 177 188 186 183 200 212 189 163 145 156 168 179 190 209 220 224 215 207
272 5 135 343 36 7 360 30 28 31 42 36 77 124 136 145 158 168 175 173 164 170 171 165 167 168 166 158 159 176 177 175 197 195 189 208 218 151 139 156 162 184 195 206 209 223 228 219 209
298 351 340 10 39 325 330 352 54 46 18 1 29 125 142 160 168 181 180 167 162 166 170 174 166 168 171 170 164 171 171 180 190 193 198 201 209 188 167 170 176 188 199 204 193 220 219 219 187
275 296 256 292 277 283 308 355 69 51 1 348 5 86 143 163 168 174 170 163 164 163 165 188 179 177 177 174 165 177 176 180 188 184 194 192 182 215 176 181 170 190 181 172 226 240 158 52 49
336 303 277 263 257 257 290 333 82 55 353 350 11 28 77 117 152 159 161 162 161 160 169 185 192 190 178 172 176 181 172 171 173 172 192 191 181 204 154 203 138 202 178 177 204 202 136 147 83
274 262 254 233 236 220 267 280 68 42 5 14 20 38 35 45 31 42 67 66 179 170 173 179 191 194 192 184 177 168 162 168 166 171 199 195 179 190 155 195 147 204 205 193 207 150 126 127 121
249 250 253 221 241 273 253 125 66 27 26 35 20 31 33 22 16 22 18 4 351 334 201 180 184 198 197 189 170 166 172 161 159 166 196 206 180 188 161 165 154 195 191 171 106 52 30 103 128
262 280 308 86 188 273 271 121 135 95 49 46 36 21 35 36 21 19 12 358 347 339 320 221 180 191 203 184 169 164 173 163 155 160 173 215 184 175 145 140 151 198 145 116 129 161 201 104 114
335 326 312 299 184 251 290 198 143 104 73 40 30 23 35 33 24 20 10 357 345 338 331 321 255 192 195 179 174 161 175 164 150 145 159 185 180 151 130 124 142 64 92 80 18 126 109 76 115
312 300 295 299 24 318 297 286 122 105 82 48 34 28 31 21 12 20 9 355 349 346 338 325 316 256 199 173 180 168 172 168 153 149 149 151 126 102 109 127 129 106 103 130 261 283 174 200 246
311 303 306 333 359 327 304 297 47 97 87 56 35 26 26 13 2 11 7 1 357 350 345 336 331 314 272 195 178 176 168 164 160 140 117 109 108 101 108 119 131 136 134 174 241 261 222 232 222
321 333 342 328 317 299 286 270 237 101 69 51 36 27 22 12 2 2 2 2 359 354 347 336 329 318 295 224 173 163 152 147 139 130 120 109 109 108 99 115 145 172 181 200 226 235 220 217 235
318 338 323 305 296 287 279 278 45 63 46 28 20 17 10 7 360 0 360 0 356 355 350 343 338 333 324 278 186 175 168 165 163 151 134 121 111 119 127 124 173 197 203 209 221 224 219 210 221
316 312 296 283 273 272 275 273 47 37 26 12 6 4 2 2 359 359 359 359 355 353 349 347 346 346 342 346 245 169 147 141 132 129 126 119 112 113 123 124 205 231 227 227 227 232 223 213 216
324 311 293 269 252 254 285 300 46 19 10 2 0 359 358 359 358 356 357 359 357 356 353 353 357 358 358 10 46 118 130 133 134 133 133 124 114 99 93 143 213 230 229 232 232 231 225 217 217
343 338 330 328 294 289 5 68 52 18 13 5 358 355 355 357 358 355 357 1 359 0 1 2 10 12 15 31 56 94 114 123 134 141 144 138 134 166 203 216 226 232 230 230 224 216 223 222 218
346 355 353 328 330 335 27 78 63 16 3 2 1 358 356 359 358 358 359 4 2 4 6 6 14 21 25 39 57 74 91 103 112 123 139 144 154 188 204 212 223 229 224 229 214 213 222 227 219
352 355 335 311 311 318 59 79 35 8 3 1 2 3 1 358 358 0 6 9 9 11 11 15 21 26 29 39 57 68 76 85 98 109 119 137 179 205 209 217 208 213 208 224 198 197 211 220 224
12 355 350 352 350 345 48 51 0 354 356 355 359 0 357 357 0 5 10 14 17 16 15 20 22 26 31 38 46 63 67 75 82 95 104 117 250 241 217 221 210 193 177 185 167 193 154 201 198
16 14 2 350 21 0 8 31 358 346 348 350 355 353 353 357 3 12 17 18 17 17 19 21 21 23 25 31 40 48 51 57 57 51 27 343 297 269 261 247 229 178 165 167 158 185 161 219 226
32 16 10 19 18 23 46 24 341 333 337 348 350 348 353 1 12 16 18 19 19 20 21 23 23 26 23 25 31 35 36 36 29 1 322 310 283 263 258 256 246 146 131 147 156 166 162 196 217
Height
1489 1490 1491 1493 1493 1492 1496 1490 1486 1485 1484 1485 1485 1484 1486 1493 1500 1511 1510 1511 1512 1513 1516 1519 1521 1524 1526 1528 1529 1531 1532 1534 1535 1536 1537 1538 1539 1540 1541 1542 1543 1544 1544 1545 1546 1547 1547 1548 1549
1490 1492 1494 1494 1494 1502 1501 1490 1489 1488 1487 1486 1487 1487 1489 1496 1501 1506 1509 1512 1513 1514 1517 1520 1522 1525 1527 1529 1530 1532 1533 1534 1536 1537 1538 1539 1540 1541 1542 1543 1543 1544 1545 1546 1547 1547 1548 1549 1550
1491 1492 1494 1492 1492 1500 1499 1490 1488 1488 1488 1487 1488 1491 1495 1500 1503 1507 1511 1513 1515 1516 1519 1521 1524 1526 1528 1530 1531 1533 1534 1535 1536 1538 1539 1540 1540 1541 1542 1543 1544 1545 1546 1547 1547 1548 1549 1550 1551
1494 1494 1491 1490 1495 1490 1488 1487 1486 1487 1488 1488 1489 1493 1500 1503 1505 1508 1511 1514 1516 1518 1520 1522 1524 1527 1528 1530 1532 1533 1535 1536 1537 1538 1539 1540 1541 1542 1543 1544 1545 1545 1546 1547 1548 1549 1549 1550 1551
1495 1494 1493 1494 1492 1486 1484 1485 1486 1487 1489 1490 1491 1497 1503 1506 1507 1509 1513 1516 1517 1519 1521 1523 1525 1527 1529 1531 1532 1534 1535 1537 1538 1539 1540 1541 1542 1542 1543 1544 1545 1546 1547 1548 1549 1549 1550 1551 1552
1496 1491 1503 1504 1494 1486 1485 1486 1486 1487 1488 1490 1492 1497 1505 1508 1510 1512 1515 1517 1519 1520 1521 1524 1526 1528 1529 1531 1533 1534 1536 1537 1538 1539 1540 1541 1542 1543 1544 1545 1545 1546 1547 1548 1549 1550 1551 1551 1552
1497 1495 1502 1498 1495 1492 1488 1487 1488 1489 1492 1494 1493 1497 1504 1509 1511 1513 1516 1518 1520 1521 1522 1524 1526 1528 1530 1531 1533 1534 1536 1537 1538 1540 1541 1542 1542 1543 1544 1545 1546 1547 1548 1549 1550 1551 1551 1552 1553
1497 1494 1495 1495 1497 1496 1490 1490 1491 1492 1494 1497 1496 1498 1504 1509 1512 1514 1516 1519 1521 1522 1523 1525 1526 1528 1530 1531 1533 1534 1535 1537 1538 1540 1541 1542 1543 1544 1544 1545 1546 1547 1548 1549 1550 1551 1552 1553 1554
1497 1497 1505 1498 1497 1496 1492 1491 1494 1494 1495 1497 1499 1502 1506 1509 1512 1515 1517 1519 1521 1523 1524 1526 1527 1529 1530 1531 1533 1534 1535 1537 1538 1539 1541 1542 1543 1544 1545 1546 1547 1548 1549 1550 1551 1552 1553 1554 1555
1496 1503 1506 1496 1491 1494 1493 1494 1494 1494 1496 1498 1501 1505 1507 1510 1513 1515 1517 1519 1521 1523 1524 1525 1527 1529 1531 1532 1533 1534 1535 1536 1538 1539 1541 1542 1543 1545 1546 1546 1548 1549 1549 1550 1551 1553 1554 1555 1556
1494 1497 1497 1493 1493 1495 1495 1496 1496 1497 1500 1500 1502 1504 1507 1510 1513 1514 1516 1517 1519 1522 1524 1525 1526 1528 1530 1532 1532 1533 1535 1536 1537 1539 1541 1543 1545 1546 1547 1548 1548 1549 1549 1550 1552 1553 1554 1555 1556
1495 1494 1495 1495 1497 1497 1497 1497 1498 1501 1503 1503 1502 1503 1506 1509 1511 1513 1514 1516 1518 1520 1522 1525 1525 1527 1528 1530 1532 1533 1534 1535 1537 1538 1541 1543 1545 1547 1547 1547 1548 1549 1550 1551 1553 1554 1555 1556 1558
1495 1495 1495 1497 1498 1498 1498 1498 1500 1503 1504 1503 1503 1503 1504 1506 1509 1512 1513 1515 1517 1519 1521 1523 1525 1526 1527 1529 1530 1532 1533 1534 1536 1538 1540 1542 1544 1546 1547 1549 1549 1550 1551 1552 1554 1554 1556 1557 1558
1497 1496 1496 1496 1497 1497 1498 1499 1501 1504 1505 1504 1503 1503 1504 1506 1509 1511 1513 1514 1515 1517 1518 1521 1523 1525 1526 1527 1528 1530 1532 1533 1535 1537 1539 1541 1543 1544 1546 1548 1549 1551 1552 1553 1554 1555 1556 1557 1557
1497 1496 1494 1494 1494 1495 1498 1502 1503 1505 1505 1505 1505 1505 1506 1507 1509 1510 1511 1513 1514 1515 1516 1518 1520 1522 1524 1525 1527 1528 1530 1531 1533 1535 1537 1540 1541 1543 1545 1547 1547 1549 1551 1553 1553 1555 1556 1556 1557
1493 1494 1499 1493 1494 1496 1502 1510 1507 1507 1506 1507 1508 1508 1508 1508 1509 1510 1510 1511 1512 1514 1515 1515 1517 1519 1521 1523 1524 1526 1528 1530 1531 1533 1535 1538 1539 1541 1543 1545 1546 1548 1550 1551 1552 1553 1555 1556 1556
1494 1502 1503 1502 1497 1498 1500 1509 1507 1507 1507 1508 1509 1510 1510 1510 1511 1510 1510 1511 1511 1511 1512 1513 1514 1515 1517 1520 1522 1523 1525 1527 1529 1531 1533 1535 1537 1539 1540 1542 1544 1546 1548 1549 1551 1552 1554 1555 1555
1508 1506 1504 1505 1500 1500 1502 1505 1505 1506 1508 1509 1511 1511 1512 1512 1513 1512 1512 1511 1510 1510 1510 1510 1511 1512 1514 1516 1518 1519 1522 1523 1525 1527 1530 1532 1535 1536 1538 1539 1541 1544 1545 1547 1549 1550 1552 1553 1554
1503 1503 1503 1500 1497 1501 1503 1503 1503 1506 1509 1511 1512 1513 1514 1515 1515 1514 1513 1512 1510 1509 1508 1508 1508 1509 1510 1511 1514 1515 1517 1519 1521 1524 1526 1528 1531 1533 1535 1536 1538 1540 1542 1544 1546 1548 1549 1551 1552
1504 1504 1502 1500 1499 1501 1504 1505 1505 1508 1511 1515 1516 1517 1517 1518 1517 1515 1514 1512 1510 1508 1506 1505 1504 1505 1506 1506 1508 1510 1512 1515 1518 1520 1521 1524 1526 1529 1531 1532 1534 1537 1539 1541 1543 1545 1546 1548 1549
1510 1509 1510 1510 1505 1503 1506 1509 1508 1510 1514 1518 1520 1521 1521 1520 1518 1516 1514 1512 1509 1507 1505 1503 1501 1501 1501 1502 1503 1505 1507 1510 1513 1514 1516 1518 1521 1524 1526 1528 1531 1533 1535 1537 1539 1541 1542 1544 1545
1518 1511 1511 1510 1513 1513 1508 1520 1518 1518 1521 1524 1525 1525 1524 1522 1519 1517 1514 1511 1509 1506 1503 1500 1498 1497 1496 1497 1499 1500 1500 1503 1506 1509 1511 1514 1517 1519 1522 1525 1527 1529 1531 1533 1535 1537 1538 1540 1541
1517 1511 1509 1507 1509 1512 1507 1515 1529 1525 1532 1532 1531 1529 1526 1523 1520 1517 1514 1511 1508 1505 1501 1498 1495 1493 1492 1493 1494 1495 1497 1498 1501 1504 1507 1510 1512 1516 1518 1520 1523 1525 1527 1530 1532 1533 1534 1535 1537
1513 1509 1502 1497 1502 1517 1513 1520 1545 1543 1542 1539 1535 1532 1528 1524 1521 1517 1514 1510 1507 1503 1500 1497 1494 1492 1490 1489 1490 1491 1493 1495 1497 1499 1502 1505 1508 1512 1514 1516 1519 1522 1524 1526 1528 1529 1531 1532 1533
1517 1519 1521 1519 1519 1523 1514 1531 1555 1550 1547 1544 1540 1535 1530 1526 1522 1517 1513 1509 1506 1503 1500 1497 1494 1492 1490 1488 1488 1489 1491 1493 1495 1498 1500 1502 1505 1508 1510 1513 1516 1519 1521 1522 1524 1526 1527 1528 1529
1525 1525 1537 1544 1537 1530 1525 1545 1556 1553 1550 1547 1542 1537 1532 1528 1522 1518 1513 1510 1507 1504 1501 1498 1496 1493 1491 1490 1489 1490 1491 1493 1495 1497 1499 1501 1503 1506 1508 1511 1513 1516 1518 1520 1521 1523 1524 1525 1526
1533 1532 1528 1533 1530 1535 1541 1550 1550 1552 1550 1547 1542 1538 1534 1529 1523 1518 1514 1511 1508 1505 1503 1500 1497 1495 1493 1492 1492 1491 1492 1493 1495 1497 1499 1500 1502 1505 1507 1509 1512 1514 1516 1518 1519 1520 1522 1522 1523
1535 1535 1534 1539 1547 1549 1549 1560 1567 1560 1555 1550 1545 1541 1535 1529 1524 1519 1516 1512 1509 1507 1505 1502 1500 1498 1496 1495 1494 1494 1494 1495 1497 1498 1500 1501 1503 1505 1507 1509 1511 1513 1515 1516 1517 1518 1519 1520 1521
1542 1542 1540 1539 1544 1557 1564 1573 1568 1565 1560 1555 1550 1544 1538 1532 1527 1523 1519 1515 1512 1509 1507 1505 1503 1501 1500 1499 1498 1498 1498 1499 1500 1501 1502 1503 1505 1506 1508 1509 1511 1513 1514 1515 1516 1517 1517 1518 1519
1546 1546 1545 1553 1556 1556 1567 1579 1567 1564 1560 1556 1552 1546 1541 1536 1531 1526 1522 1519 1516 1513 1510 1508 1506 1505 1504 1502 1502 1502 1502 1503 1503 1504 1505 1505 1506 1507 1508 1509 1511 1512 1513 1514 1515 1516 1516 1517 1518